Location: Chihuahua
(28.6330°N, 106.0830°W)
Time: 23:07:21
(UTC-07:00)

Daily predictions for brighter satellites

Satellite Brightness Start Highest point End
(mag) Time Altitude Azimuth Time Altitude Azimuth Time Altitude Azimuth
Cosmos 1452 Rocket 3.8 18:53:15 10° SSW 18:58:31 77° WNW 19:03:49 10° NNE
Cosmos 1420 Rocket 3.9 18:53:39 10° S 18:58:46 70° ESE 19:03:55 10° NNE
HJ-1C 4.0 18:57:48 10° SE 19:00:58 37° ENE 19:04:09 10° N
Cosmos 407 Rocket 3.6 18:58:57 10° NNW 19:04:19 86° ENE 19:09:35 10° SSE
GPS 2-05 Rocket1 4.5 19:01:30 10° NW 19:04:27 26° N 19:07:20 10° ENE
FREGAT/IRIS 2.6 19:03:37 10° S 19:06:37 85° W 19:09:39 10° NNW
Abrixas 3.3 19:05:14 10° S 19:07:25 24° SE 19:09:36 10° ENE
H-2A R/B 2.8 19:04:50 10° SSE 19:08:34 59° ENE 19:12:17 10° N
SeaSat 1 3.3 19:05:10 10° NE 19:09:23 28° ESE 19:13:35 10° SSE
Cosmos 1190 Rocket 4.3 19:05:57 10° NNW 19:11:13 72° WSW 19:16:28 10° S
Cosmos 1428 Rocket 4.5 19:11:40 10° S 19:17:56 77° E 19:24:10 10° N
Cosmos 2026 Rocket 4.4 19:11:45 10° SSW 19:18:02 72° W 19:24:25 10° N
Cosmos 1633 3.6 19:15:22 10° SSW 19:18:51 50° W 19:22:24 10° N
Cosmos 1812 4.2 19:17:41 10° NNW 19:21:19 40° W 19:24:56 10° SSW
NOSS 2-3 (C) 4.3 19:18:00 10° SW 19:22:29 64° WNW 19:27:28 10° NNE
Cosmos 44 Rocket 3.2 19:18:01 10° NNW 19:22:48 82° ENE 19:27:40 10° SSE
Cosmos 2227 4.2 19:18:26 10° NNW 19:24:05 71° ENE 19:29:44 10° SSE
Palapa 6 Rocket 4.4 19:20:27 10° WSW 19:24:42 32° S 19:28:53 14° SE
Cosmos 614 Rocket 4.2 19:21:52 10° N 19:26:49 48° ENE 19:31:37 11° SE
ASTRO E2 3.6 19:24:06 10° SW 19:27:40 31° SSE 19:29:50 19° ESE
Cosmos 1140 Rocket 3.5 19:23:00 10° N 19:28:11 61° ENE 19:33:21 10° SSE
Cosmos 676 Rocket 4.1 19:23:06 10° NNW 19:28:27 87° WSW 19:33:46 10° SSE
Spot 2 Rocket 3.9 19:26:15 10° SE 19:31:04 44° ENE 19:35:52 10° N
Cosmos 1602 4.1 19:27:48 10° SSW 19:31:37 68° W 19:35:26 10° N
GENESIS II 4.5 19:34:47 10° NNW 19:38:34 48° ENE 19:40:30 25° ESE
Helios 1B rocket 3.8 19:36:52 10° NE 19:39:14 19° E 19:39:14 19° E
Delta 2 Rocket 4.4 19:36:42 10° W 19:40:20 40° NNW 19:44:17 11° ENE
Atlas Centaur 2 3.0 19:34:15 10° W 19:42:50 88° NNE 19:48:15 21° E
Cosmos 2322 Rocket 3.4 19:40:48 10° SW 19:46:14 46° WNW 19:51:42 10° N
Cosmos 2263 Rocket 2.8 19:42:09 10° N 19:47:24 37° ENE 19:49:51 25° ESE
Cosmos 1954 Rocket 4.3 19:42:30 10° NNW 19:47:47 69° WSW 19:53:03 10° S
Resurs 1-3 3.5 19:47:18 13° SSE 19:51:11 81° ENE 19:55:35 10° N
Meteosat 1 Rocket2 3.5 19:46:38 10° W 19:51:12 83° S 19:55:23 23° E
USA 186 1.7 19:50:12 26° SSE 19:51:57 79° ENE 19:55:19 10° N
Cosmos 44 3.9 19:47:48 10° NW 19:52:11 50° WSW 19:56:26 12° S
ATLAS 3B R/B 4.1 19:48:57 10° N 19:53:26 19° NE 19:55:33 16° ENE
CZ-3A R/B 2.5 19:50:24 10° W 19:53:46 19° SSW 19:54:25 17° SSW
Cosmos 2237 4.5 19:50:10 10° S 19:55:28 42° ESE 20:00:48 10° NE
Meteor 1-11 Rocket 4.3 19:52:18 10° SSW 19:58:07 63° W 20:03:48 10° N
BREEZE M DEB (TANK) 3.9 19:42:17 10° SW 19:58:31 80° NW 20:02:31 10° NE
DELTA 2 R/B (1) 3.6 19:53:30 10° WNW 19:59:07 83° SSW 20:01:44 33° SE
SL-16 R/B 3.9 19:54:09 10° SW 19:59:16 35° WNW 20:04:25 10° N
USA 267 3.2 19:55:04 24° SE 19:59:22 80° NE 20:05:56 10° NW
Envisat 2.9 19:56:57 21° SSE 20:00:21 71° ENE 20:05:24 10° N
Cosmos 1300 Rocket 4.1 20:03:29 10° SSW 20:07:42 56° W 20:11:56 10° N
Cosmos 1741 Rocket 3.9 20:02:47 10° NNW 20:08:02 76° ENE 20:10:24 34° SSE
Okean 1 Rocket 2.9 20:04:34 10° S 20:08:54 90° NNE 20:13:16 10° N
Cosmos 2322 3.6 20:05:58 10° SSW 20:11:36 84° ESE 20:17:17 10° NNE
Tiangong 1 3.4 20:12:18 10° NNW 20:13:23 14° N 20:13:23 14° N
Cosmos 1025 Rocket 4.0 20:10:56 10° NNE 20:13:49 31° NE 20:13:49 31° NE
Cosmos 2360 Rocket 2.5 20:12:32 10° SSW 20:18:07 66° WNW 20:23:43 10° NNE
Skynet4D Del rocket 4.1 20:11:08 10° W 20:18:19 66° SSW 20:20:23 43° SE
Cosmos 1607 4.2 20:12:23 10° NNW 20:18:43 55° ENE 20:20:28 43° ESE
Meteor 1-23 Rocket 4.1 20:14:19 10° N 20:19:52 70° E 20:21:37 44° SSE
Cosmos 1302 Rocket 4.0 20:20:49 53° ESE 20:21:05 54° ESE 20:26:13 10° NNE
Lacrosse 5 4.4 20:19:47 10° W 20:23:31 20° NW 20:27:16 10° N
COSMOS 2428 2.7 20:22:47 49° SE 20:23:41 54° ESE 20:29:14 10° NNE
Helios 1A 3.5 20:27:55 49° NNE 20:27:55 49° NNE 20:31:19 10° N
ATLAS 2AS CENTAUR R/B 4.3 20:21:29 10° WSW 20:28:30 41° NW 20:36:01 10° NNE
Cosmos 1939 Rocket 2.9 20:28:40 71° WSW 20:28:48 72° WSW 20:32:44 10° NNW
Resurs 01 Rocket 3.4 20:26:02 10° SSW 20:29:54 29° W 20:33:47 10° NW
Okean 1-7 Rocket 4.2 20:28:59 10° N 20:32:26 47° NNE 20:32:26 47° NNE
Lacrosse 5 rocket 3.7 20:31:33 10° W 20:33:49 15° WSW 20:34:58 14° SW
H-2A ROCKET BODY 4.2 20:32:47 10° SSW 20:33:05 11° SSW 20:33:05 11° SSW
NOAA 11 4.5 20:39:18 50° NE 20:39:18 50° NE 20:44:08 10° N
Cosmos 2333 4.1 20:43:32 70° ENE 20:43:32 70° ENE 20:48:41 10° NNE
Spot 1 4.5 20:43:43 71° NE 20:43:43 71° NE 20:48:25 10° N
Cosmos 2315 Rocket 4.0 20:49:16 10° N 20:55:34 80° W 20:56:33 64° SSW
ARGOS 4.2 21:12:44 37° N 21:12:44 37° N 21:15:58 10° N
FALCON 9 R/B 4.3 21:16:05 10° SW 21:27:23 37° ENE 21:41:54 10° ENE
ERS-1 Rocket 4.4 21:26:49 35° NW 21:26:49 35° NW 21:29:50 10° NNW
Cosmos 2263 Rocket 4.1 21:26:47 10° NW 21:30:59 22° W 21:31:35 21° WSW
Atlas Centaur 2 3.5 21:24:45 10° W 21:30:52 44° WSW 21:30:52 44° WSW
USA 238 DEB 4.0 21:25:45 10° NNW 21:31:39 64° NNW 21:31:39 64° NNW
USA 238 4.0 21:25:52 10° NNW 21:31:45 64° NNW 21:31:45 64° NNW
Cosmos 2278 Rocket 4.5 21:33:04 10° N 21:34:14 15° NNE 21:34:14 15° NNE
Cosmos 1844 Rocket 4.2 21:32:19 10° NNW 21:35:07 30° N 21:35:07 30° N
ATLAS 3B R/B 3.3 21:38:04 10° NW 21:42:49 47° NW 21:42:49 47° NW
Cosmos 2219 Rocket 4.1 21:49:03 25° N 21:49:03 25° N 21:51:31 10° N
H-2A R/B 4.4 21:58:37 18° NNW 21:58:37 18° NNW 21:59:56 10° NNW
Intelsat 5-1 Rocket 4.4 21:44:14 10° W 21:57:02 48° WSW 21:57:02 48° WSW
CENTAUR R/B 4.5 22:26:07 10° N 22:30:40 29° NNE 22:30:40 29° NNE
